| time (UTC) | temp F | wind direction | speed MPH | gust MPH | rain 1hr in | rain 24hr in | rain mn in | humidity % | barometer mb |
| 20260831170003 | 66 | 270 | 3.0 | 8.0 | 0.00 | 0.03 | 0.03 | 61 | 1018.5 |
| 20260831165403 | 66 | 264 | 3.0 | 8.0 | 0.00 | 0.03 | 0.03 | 63 | 1018.6 |
| 20260831164503 | 66 | 266 | 3.0 | 8.0 | 0.00 | 0.03 | 0.03 | 63 | 1018.6 |
| 20260831163603 | 66 | 269 | 4.0 | 9.0 | 0.00 | 0.03 | 0.03 | 63 | 1018.5 |
| 20260831162703 | 66 | 267 | 4.0 | 8.0 | 0.00 | 0.03 | 0.03 | 64 | 1018.5 |
| 20260831161803 | 66 | 269 | 3.0 | 9.0 | 0.00 | 0.03 | 0.03 | 64 | 1018.4 |
| 20260831160903 | 66 | 270 | 3.0 | 7.0 | 0.00 | 0.03 | 0.03 | 62 | 1018.3 |
| 20260831160003 | 66 | 279 | 2.0 | 6.0 | 0.00 | 0.04 | 0.03 | 63 | 1018.3 |
| 20260831155403 | 66 | 266 | 3.0 | 8.0 | 0.00 | 0.06 | 0.03 | 62 | 1018.3 |
| 20260831154503 | 66 | 271 | 3.0 | 9.0 | 0.00 | 0.13 | 0.03 | 61 | 1018.2 |
| 20260831153603 | 66 | 275 | 3.0 | 12.0 | 0.00 | 0.13 | 0.03 | 61 | 1018.2 |
| 20260831152703 | 66 | 293 | 3.0 | 8.0 | 0.00 | 0.13 | 0.03 | 61 | 1018.2 |
| 20260831151803 | 66 | 302 | 3.0 | 6.0 | 0.00 | 0.13 | 0.03 | 62 | 1018.2 |
| 20260831150903 | 66 | 289 | 2.0 | 9.0 | 0.00 | 0.13 | 0.03 | 63 | 1018.2 |
| 20260831150003 | 66 | 299 | 2.0 | 7.0 | 0.00 | 0.13 | 0.03 | 62 | 1018.1 |
| 20260831145403 | 66 | 299 | 3.0 | 10.0 | 0.00 | 0.13 | 0.03 | 63 | 1018.2 |
| 20260831144503 | 66 | 283 | 3.0 | 8.0 | 0.00 | 0.13 | 0.03 | 61 | 1018.2 |
| 20260831143603 | 66 | 288 | 3.0 | 9.0 | 0.00 | 0.13 | 0.03 | 62 | 1018.2 |
| 20260831142703 | 66 | 304 | 2.0 | 5.0 | 0.00 | 0.13 | 0.03 | 61 | 1018.0 |
| 20260831141803 | 66 | 291 | 3.0 | 9.0 | 0.00 | 0.13 | 0.03 | 62 | 1017.9 |
| 20260831140903 | 67 | 300 | 2.0 | 6.0 | 0.00 | 0.13 | 0.03 | 63 | 1017.9 |
| 20260831140003 | 67 | 289 | 2.0 | 9.0 | 0.00 | 0.13 | 0.03 | 59 | 1017.8 |
| 20260831135403 | 67 | 320 | 3.0 | 9.0 | 0.00 | 0.13 | 0.03 | 60 | 1017.8 |
| 20260831134503 | 67 | 306 | 3.0 | 8.0 | 0.00 | 0.14 | 0.03 | 61 | 1017.8 |
| 20260831133603 | 66 | 303 | 3.0 | 8.0 | 0.00 | 0.14 | 0.03 | 63 | 1017.8 |
| 20260831132703 | 66 | 287 | 3.0 | 8.0 | 0.00 | 0.15 | 0.03 | 62 | 1017.8 |
| 20260831131803 | 66 | 285 | 3.0 | 8.0 | 0.00 | 0.16 | 0.03 | 63 | 1017.7 |
| 20260831130903 | 66 | 322 | 3.0 | 10.0 | 0.00 | 0.17 | 0.03 | 63 | 1017.7 |
| 20260831130003 | 66 | 307 | 3.0 | 8.0 | 0.00 | 0.17 | 0.03 | 62 | 1017.5 |
| 20260831125403 | 66 | 286 | 3.0 | 10.0 | 0.00 | 0.17 | 0.03 | 66 | 1017.5 |
| 20260831124503 | 65 | 315 | 3.0 | 12.0 | 0.00 | 0.17 | 0.03 | 66 | 1017.5 |
| 20260831123603 | 65 | 299 | 4.0 | 9.0 | 0.00 | 0.17 | 0.03 | 66 | 1017.5 |
| 20260831122703 | 65 | 316 | 3.0 | 10.0 | 0.00 | 0.17 | 0.03 | 66 | 1017.5 |
| 20260831121803 | 65 | 292 | 3.0 | 9.0 | 0.00 | 0.17 | 0.03 | 66 | 1017.5 |
| 20260831120903 | 64 | 287 | 4.0 | 9.0 | 0.00 | 0.17 | 0.03 | 66 | 1017.4 |
| 20260831120003 | 64 | 278 | 3.0 | 11.0 | 0.00 | 0.17 | 0.03 | 67 | 1017.4 |
| 20260831115403 | 64 | 295 | 3.0 | 8.0 | 0.00 | 0.17 | 0.03 | 69 | 1017.2 |
| 20260831114503 | 63 | 283 | 4.0 | 13.0 | 0.00 | 0.17 | 0.03 | 71 | 1017.3 |
| 20260831113603 | 62 | 281 | 4.0 | 10.0 | 0.00 | 0.17 | 0.03 | 72 | 1017.2 |
| 20260831112703 | 61 | 283 | 5.0 | 12.0 | 0.00 | 0.17 | 0.03 | 72 | 1017.1 |
| 20260831111803 | 62 | 280 | 4.0 | 12.0 | 0.00 | 0.17 | 0.03 | 71 | 1017.0 |
| 20260831110903 | 62 | 278 | 3.0 | 13.0 | 0.00 | 0.17 | 0.03 | 71 | 1017.1 |
| 20260831110003 | 62 | 303 | 3.0 | 10.0 | 0.00 | 0.17 | 0.03 | 69 | 1016.9 |
| 20260831105403 | 62 | 317 | 3.0 | 10.0 | 0.00 | 0.17 | 0.03 | 68 | 1016.9 |
| 20260831104503 | 62 | 324 | 4.0 | 12.0 | 0.00 | 0.17 | 0.03 | 69 | 1016.8 |
| 20260831103603 | 63 | 327 | 5.0 | 12.0 | 0.00 | 0.17 | 0.03 | 69 | 1016.7 |
| 20260831102703 | 62 | 322 | 4.0 | 12.0 | 0.00 | 0.17 | 0.03 | 68 | 1016.5 |
| 20260831101803 | 62 | 315 | 3.0 | 7.0 | 0.00 | 0.17 | 0.03 | 70 | 1016.6 |
| 20260831100903 | 62 | 310 | 4.0 | 11.0 | 0.00 | 0.17 | 0.03 | 71 | 1016.6 |
| 20260831100003 | 61 | 319 | 3.0 | 9.0 | 0.00 | 0.17 | 0.03 | 71 | 1016.5 |
| 20260831095403 | 61 | 317 | 3.0 | 9.0 | 0.00 | 0.17 | 0.03 | 72 | 1016.4 |
| 20260831094503 | 60 | 302 | 3.0 | 10.0 | 0.00 | 0.17 | 0.03 | 72 | 1016.3 |
| 20260831093603 | 60 | 302 | 3.0 | 6.0 | 0.00 | 0.17 | 0.03 | 73 | 1016.2 |
| 20260831092703 | 60 | 312 | 3.0 | 11.0 | 0.00 | 0.17 | 0.03 | 74 | 1016.0 |
| 20260831091803 | 59 | 310 | 4.0 | 9.0 | 0.00 | 0.32 | 0.03 | 75 | 1016.1 |
| 20260831090903 | 60 | 291 | 3.0 | 9.0 | 0.00 | 0.36 | 0.03 | 76 | 1016.0 |
| 20260831090003 | 60 | 300 | 2.0 | 7.0 | 0.00 | 0.36 | 0.03 | 75 | 1015.9 |
| 20260831085403 | 59 | 306 | 3.0 | 12.0 | 0.00 | 0.36 | 0.03 | 76 | 1015.8 |
| 20260831084503 | 59 | 296 | 3.0 | 12.0 | 0.00 | 0.36 | 0.03 | 78 | 1015.5 |
| 20260831083603 | 59 | 305 | 2.0 | 8.0 | 0.00 | 0.36 | 0.03 | 80 | 1015.5 |
| 20260831082703 | 58 | 321 | 2.0 | 7.0 | 0.00 | 0.36 | 0.03 | 81 | 1015.4 |
| 20260831081803 | 57 | 300 | 2.0 | 6.0 | 0.00 | 0.36 | 0.03 | 83 | 1015.4 |
| 20260831080903 | 57 | 279 | 3.0 | 8.0 | 0.00 | 0.36 | 0.03 | 83 | 1015.4 |
| 20260831080003 | 56 | 274 | 3.0 | 6.0 | 0.00 | 0.36 | 0.03 | 84 | 1015.2 |
| 20260831075403 | 56 | 269 | 3.0 | 8.0 | 0.00 | 0.36 | 0.03 | 85 | 1015.1 |
| 20260831074503 | 56 | 271 | 3.0 | 8.0 | 0.00 | 0.36 | 0.03 | 85 | 1015.0 |
| 20260831073603 | 56 | 280 | 2.0 | 7.0 | 0.00 | 0.36 | 0.03 | 86 | 1014.9 |
| 20260831072703 | 56 | 299 | 2.0 | 8.0 | 0.00 | 0.36 | 0.03 | 86 | 1014.7 |
| 20260831071803 | 55 | 303 | 2.0 | 5.0 | 0.00 | 0.36 | 0.03 | 87 | 1014.6 |
| 20260831070903 | 55 | 290 | 2.0 | 6.0 | 0.00 | 0.36 | 0.03 | 87 | 1014.5 |
| 20260831070003 | 55 | 274 | 3.0 | 7.0 | 0.00 | 0.36 | 0.03 | 87 | 1014.4 |
| 20260831065403 | 55 | 264 | 3.0 | 7.0 | 0.00 | 0.36 | 0.03 | 87 | 1014.4 |
| 20260831064503 | 55 | 260 | 3.0 | 8.0 | 0.00 | 0.36 | 0.03 | 87 | 1014.3 |
| 20260831063603 | 55 | 268 | 2.0 | 8.0 | 0.00 | 0.37 | 0.03 | 86 | 1014.0 |
| 20260831062703 | 55 | 263 | 2.0 | 6.0 | 0.00 | 0.39 | 0.03 | 86 | 1014.0 |
| 20260831061803 | 55 | 264 | 2.0 | 5.0 | 0.00 | 0.39 | 0.03 | 86 | 1013.9 |
| 20260831060903 | 55 | 271 | 2.0 | 5.0 | 0.00 | 0.41 | 0.03 | 86 | 1013.6 |
| 20260831060003 | 55 | 305 | 1.0 | 4.0 | 0.00 | 0.45 | 0.03 | 86 | 1013.4 |
| 20260831055403 | 55 | 316 | 1.0 | 4.0 | 0.00 | 0.47 | 0.03 | 86 | 1013.4 |
| 20260831054503 | 56 | 289 | 2.0 | 7.0 | 0.00 | 0.53 | 0.03 | 86 | 1013.3 |
| 20260831053603 | 56 | 305 | 2.0 | 8.0 | 0.00 | 0.53 | 0.03 | 86 | 1013.0 |
| 20260831052703 | 56 | 320 | 3.0 | 8.0 | 0.00 | 0.53 | 0.03 | 86 | 1012.9 |
| 20260831051803 | 56 | 324 | 3.0 | 8.0 | 0.00 | 0.54 | 0.03 | 86 | 1012.7 |
| 20260831050903 | 56 | 320 | 3.0 | 10.0 | 0.00 | 0.54 | 0.03 | 86 | 1012.5 |
| 20260831050003 | 56 | 321 | 3.0 | 11.0 | 0.00 | 0.54 | 0.03 | 87 | 1012.3 |
| 20260831045403 | 56 | 328 | 6.0 | 18.0 | 0.00 | 0.54 | 0.03 | 87 | 1012.2 |
| 20260831044503 | 56 | 333 | 6.0 | 23.0 | 0.00 | 0.54 | 0.03 | 87 | 1012.0 |
| 20260831043603 | 56 | 322 | 3.0 | 11.0 | 0.00 | 0.54 | 0.03 | 87 | 1012.0 |
| 20260831042703 | 56 | 316 | 3.0 | 8.0 | 0.00 | 0.54 | 0.03 | 87 | 1011.8 |
| 20260831041803 | 56 | 319 | 3.0 | 9.0 | 0.00 | 0.54 | 0.03 | 87 | 1011.7 |
| 20260831040903 | 56 | 307 | 3.0 | 7.0 | 0.00 | 0.54 | 0.03 | 88 | 1011.4 |
| 20260831040003 | 56 | 304 | 2.0 | 7.0 | 0.00 | 0.54 | 0.03 | 88 | 1011.3 |
| 20260831035403 | 56 | 307 | 2.0 | 7.0 | 0.00 | 0.54 | 0.03 | 88 | 1011.2 |
| 20260831034503 | 57 | 320 | 3.0 | 7.0 | 0.00 | 0.54 | 0.03 | 88 | 1011.0 |
| 20260831033603 | 57 | 312 | 4.0 | 8.0 | 0.00 | 0.54 | 0.03 | 88 | 1011.0 |
| 20260831032703 | 57 | 315 | 4.0 | 9.0 | 0.00 | 0.54 | 0.03 | 89 | 1010.9 |
| 20260831031803 | 57 | 314 | 3.0 | 8.0 | 0.00 | 0.54 | 0.03 | 89 | 1010.7 |
| 20260831030903 | 57 | 295 | 3.0 | 8.0 | 0.00 | 0.54 | 0.03 | 89 | 1010.8 |
| 20260831030003 | 57 | 319 | 4.0 | 9.0 | 0.01 | 0.54 | 0.03 | 89 | 1010.2 |
| 20260831025403 | 57 | 318 | 4.0 | 7.0 | 0.01 | 0.54 | 0.03 | 89 | 1010.1 |
| 20260831024503 | 57 | 304 | 3.0 | 7.0 | 0.01 | 0.54 | 0.03 | 90 | 1010.2 |
| 20260831023603 | 57 | 316 | 2.0 | 7.0 | 0.02 | 0.54 | 0.03 | 90 | 1009.9 |
| 20260831022703 | 57 | 322 | 3.0 | 9.0 | 0.03 | 0.54 | 0.03 | 90 | 1010.1 |
| 20260831021803 | 57 | 326 | 4.0 | 12.0 | 0.03 | 0.54 | 0.03 | 90 | 1009.8 |
| 20260831020903 | 57 | 327 | 4.0 | 15.0 | 0.03 | 0.54 | 0.03 | 90 | 1009.8 |
| 20260831020003 | 58 | 325 | 4.0 | 15.0 | 0.02 | 0.53 | 0.02 | 90 | 1009.6 |
| 20260831015403 | 58 | 320 | 3.0 | 6.0 | 0.02 | 0.53 | 0.02 | 90 | 1009.6 |
| 20260831014503 | 58 | 295 | 3.0 | 10.0 | 0.02 | 0.53 | 0.02 | 90 | 1009.5 |
| 20260831013603 | 58 | 301 | 3.0 | 8.0 | 0.01 | 0.51 | 0.01 | 90 | 1009.2 |
| 20260831012703 | 57 | 293 | 3.0 | 9.0 | 0.00 | 0.50 | 0.00 | 89 | 1009.1 |
| 20260831011803 | 57 | 289 | 3.0 | 8.0 | 0.00 | 0.50 | 0.00 | 89 | 1008.8 |
| 20260831010903 | 57 | 285 | 3.0 | 7.0 | 0.00 | 0.50 | 0.00 | 89 | 1008.7 |
| 20260831010003 | 57 | 287 | 2.0 | 9.0 | 0.00 | 0.51 | 0.00 | 89 | 1008.6 |
| 20260831005403 | 56 | 279 | 2.0 | 6.0 | 0.00 | 0.51 | 0.00 | 89 | 1008.4 |
| 20260831004503 | 56 | 270 | 3.0 | 7.0 | 0.00 | 0.51 | 0.00 | 89 | 1008.4 |
| 20260831003603 | 57 | 274 | 3.0 | 10.0 | 0.00 | 0.51 | 0.00 | 89 | 1008.2 |
| 20260831002703 | 57 | 271 | 2.0 | 8.0 | 0.00 | 0.51 | 0.00 | 89 | 1008.1 |
| 20260831001803 | 57 | 274 | 3.0 | 8.0 | 0.00 | 0.51 | 0.00 | 89 | 1007.9 |
| 20260831000903 | 57 | 285 | 3.0 | 9.0 | 0.00 | 0.51 | 0.00 | 89 | 1007.8 |
| 20260831000003 | 56 | 282 | 3.0 | 7.0 | 0.00 | 0.51 | 0.00 | 89 | 1007.8 |
| 20260830235403 | 56 | 282 | 3.0 | 9.0 | 0.00 | 0.51 | 0.00 | 89 | 1007.6 |
| 20260830234503 | 56 | 278 | 3.0 | 7.0 | 0.00 | 0.51 | 0.00 | 89 | 1007.6 |
| 20260830233603 | 56 | 273 | 4.0 | 7.0 | 0.00 | 0.51 | 0.00 | 89 | 1007.5 |
| 20260830232703 | 57 | 277 | 3.0 | 9.0 | 0.00 | 0.51 | 0.00 | 89 | 1007.3 |
| 20260830231803 | 57 | 278 | 3.0 | 8.0 | 0.00 | 0.51 | 0.00 | 89 | 1007.1 |
| 20260830230903 | 57 | 270 | 3.0 | 8.0 | 0.00 | 0.51 | 0.00 | 89 | 1006.9 |
| 20260830230003 | 57 | 271 | 3.0 | 8.0 | 0.00 | 0.51 | 0.00 | 89 | 1006.8 |
| 20260830225403 | 57 | 277 | 4.0 | 9.0 | 0.00 | 0.51 | 0.51 | 89 | 1006.8 |
| 20260830224503 | 57 | 290 | 2.0 | 7.0 | 0.00 | 0.51 | 0.51 | 89 | 1006.7 |
| 20260830223603 | 57 | 313 | 2.0 | 6.0 | 0.00 | 0.51 | 0.51 | 89 | 1006.5 |
| 20260830222703 | 57 | 310 | 3.0 | 7.0 | 0.00 | 0.51 | 0.51 | 89 | 1006.4 |
| 20260830221803 | 56 | 314 | 2.0 | 7.0 | 0.00 | 0.51 | 0.51 | 89 | 1006.3 |
| 20260830220903 | 56 | 303 | 2.0 | 5.0 | 0.00 | 0.51 | 0.51 | 89 | 1006.2 |
| 20260830220003 | 56 | 291 | 2.0 | 6.0 | 0.00 | 0.51 | 0.51 | 89 | 1006.0 |
| 20260830215403 | 56 | 303 | 2.0 | 6.0 | 0.00 | 0.51 | 0.51 | 89 | 1005.9 |
| 20260830214503 | 56 | 277 | 2.0 | 7.0 | 0.00 | 0.51 | 0.51 | 89 | 1005.7 |
| 20260830213603 | 57 | 277 | 2.0 | 7.0 | 0.00 | 0.51 | 0.51 | 89 | 1005.7 |
| 20260830212703 | 57 | 275 | 2.0 | 6.0 | 0.00 | 0.51 | 0.51 | 89 | 1005.5 |
| 20260830211803 | 57 | 267 | 2.0 | 8.0 | 0.00 | 0.51 | 0.51 | 89 | 1005.4 |
| 20260830210903 | 57 | 271 | 2.0 | 8.0 | 0.00 | 0.51 | 0.51 | 89 | 1005.2 |
| 20260830210003 | 57 | 271 | 2.0 | 6.0 | 0.00 | 0.51 | 0.51 | 89 | 1005.2 |
| 20260830205403 | 57 | 270 | 2.0 | 6.0 | 0.00 | 0.51 | 0.51 | 89 | 1005.0 |
| 20260830204503 | 57 | 267 | 3.0 | 7.0 | 0.00 | 0.51 | 0.51 | 89 | 1005.0 |
| 20260830203603 | 57 | 273 | 2.0 | 5.0 | 0.00 | 0.51 | 0.51 | 89 | 1004.9 |
| 20260830202703 | 57 | 273 | 1.0 | 3.0 | 0.00 | 0.51 | 0.51 | 89 | 1004.8 |
| 20260830201803 | 57 | 299 | 1.0 | 3.0 | 0.00 | 0.51 | 0.51 | 89 | 1004.7 |
| 20260830200903 | 57 | 287 | 1.0 | 5.0 | 0.00 | 0.51 | 0.51 | 90 | 1004.6 |
| 20260830200003 | 57 | 272 | 2.0 | 5.0 | 0.00 | 0.51 | 0.51 | 90 | 1004.4 |
| 20260830195403 | 57 | 269 | 1.0 | 5.0 | 0.00 | 0.51 | 0.51 | 90 | 1004.3 |
| 20260830194503 | 57 | 266 | 0.0 | 2.0 | 0.00 | 0.51 | 0.51 | 89 | 1004.1 |
| 20260830193603 | 58 | 279 | 0.0 | 3.0 | 0.00 | 0.51 | 0.51 | 90 | 1003.9 |
| 20260830192703 | 58 | 278 | 1.0 | 3.0 | 0.00 | 0.51 | 0.51 | 90 | 1003.8 |
| 20260830191803 | 58 | 269 | 0.0 | 4.0 | 0.00 | 0.51 | 0.51 | 90 | 1003.6 |
| 20260830190903 | 58 | 134 | 0.0 | 1.0 | 0.00 | 0.51 | 0.51 | 90 | 1003.5 |
| 20260830190003 | 58 | 134 | 0.0 | 1.0 | 0.00 | 0.51 | 0.51 | 90 | 1003.4 |
| 20260830185403 | 58 | 150 | 0.0 | 5.0 | 0.00 | 0.51 | 0.51 | 89 | 1003.3 |
| 20260830184503 | 58 | 340 | 0.0 | 1.0 | 0.00 | 0.51 | 0.51 | 89 | 1003.1 |
| 20260830183603 | 57 | 340 | 0.0 | 1.0 | 0.00 | 0.51 | 0.51 | 89 | 1003.0 |
| 20260830182703 | 57 | 340 | 0.0 | 2.0 | 0.00 | 0.51 | 0.51 | 89 | 1003.0 |
| 20260830181803 | 57 | 340 | 1.0 | 4.0 | 0.00 | 0.51 | 0.51 | 89 | 1002.9 |
| 20260830180903 | 57 | 339 | 3.0 | 5.0 | 0.00 | 0.51 | 0.51 | 89 | 1002.8 |
| 20260830180003 | 57 | 339 | 2.0 | 4.0 | 0.00 | 0.51 | 0.51 | 89 | 1002.7 |
| 20260830175403 | 57 | 336 | 3.0 | 6.0 | 0.00 | 0.51 | 0.51 | 88 | 1002.7 |
| 20260830174503 | 57 | 336 | 4.0 | 6.0 | 0.00 | 0.51 | 0.51 | 88 | 1002.7 |
| 20260830173603 | 57 | 336 | 5.0 | 9.0 | 0.00 | 0.51 | 0.51 | 88 | 1002.6 |
| 20260830172703 | 58 | 338 | 5.0 | 9.0 | 0.00 | 0.51 | 0.51 | 87 | 1002.6 |
| 20260830171803 | 58 | 337 | 5.0 | 9.0 | 0.00 | 0.51 | 0.51 | 87 | 1002.5 |
| 20260830170903 | 58 | 337 | 6.0 | 12.0 | 0.00 | 0.51 | 0.51 | 87 | 1002.4 |